Miscellaneous Local Product
Issued by NWS Hastings, NE

Home | Current Version | Previous Version | Graphics & Text | Print | Product List | Glossary On
Versions: 1 2 3 4 5 6 7 8 9 10 11 12 13 14 15 16 17 18 19 20 21 22 23 24 25 26 27 28 29 30 31 32 33 34 35 36 37 38 39 40 41 42 43 44 45 46 47 48 49 50
000
AXUS43 KGID 281502
MISGRI

GID CWA HOURLY WEATHER ROUNDUP
NATIONAL WEATHER SERVICE HASTINGS NE
900 AM CST WED JAN 28 2015

NOTE: "FAIR" INDICATES FEW OR NO CLOUDS BELOW 12,000 FEET WITH NO
SIGNIFICANT WEATHER AND/OR OBSTRUCTIONS TO VISIBILITY.

...SOUTH CENTRAL NEBRASKA...

CITY           SKY/WX    TMP DP  RH WIND       PRES   REMARKS
GRAND ISLAND   MOSUNNY   31  27  85 NW3       29.81R
HASTINGS       SUNNY     30  25  81 W3        29.79S
KEARNEY        MOSUNNY   34  28  80 NW7       29.81R WCI  28
ORD            PTSUNNY   29  26  89 CALM      29.78F
YORK           MOSUNNY   32  28  86 SE5       29.80F WCI  27
AURORA         MOSUNNY   31  29  93 CALM      29.79F
LEXINGTON      MOSUNNY   41  33  73 W15       29.83S
HOLDREGE       MOSUNNY   37  31  78 NW7       29.81R WCI  32
HEBRON         MOSUNNY   33  29  86 NW3       29.83R

...NEBRASKA PANHANDLE...

CITY           SKY/WX    TMP DP  RH WIND       PRES   REMARKS
CHADRON        PTCLDY    44  32  62 W7        29.90R
ALLIANCE       PTCLDY    45  34  65 W24G30    29.91R
SCOTTSBLUFF      N/A    N/A N/A N/A MISG      29.97R
SIDNEY         PTCLDY    47  32  56 NW18G26   29.96R

...WESTERN AND NORTH CENTRAL NEBRASKA...

CITY           SKY/WX    TMP DP  RH WIND       PRES   REMARKS
VALENTINE      MOCLDY    45  32  60 W13       29.77S
AINSWORTH      MOCLDY    47  32  56 W14       29.76S
ONEILL         MOCLDY    36  32  85 S8        29.74F WCI  30
BROKEN BOW     MOCLDY    48  33  56 W5        29.80R
IMPERIAL       MOCLDY    42  31  64 NW9       29.91S
NORTH PLATTE   MOCLDY    34  29  82 NW5       29.86S WCI  30
MCCOOK         PTSUNNY   47  34  60 NW12      29.88R

...EASTERN NEBRASKA...

CITY           SKY/WX    TMP DP  RH WIND       PRES   REMARKS
NORFOLK        PTSUNNY   33  29  85 SE7       29.80S WCI  27
SO SIOUX CITY  MOSUNNY   34  30  85 SE13      29.83F WCI  25
TEKAMAH        SUNNY     35  31  85 SE10      29.85F WCI  27
COLUMBUS       MOSUNNY   34  27  75 E3        29.82F
ALBION         PTSUNNY   31  28  88 CALM      29.79F
OMAHA EPPLEY   PTSUNNY   35  30  82 SE13      29.85F WCI  26
OFFUTT AFB     SUNNY     35  30  82 SE15      29.84F WCI  26
MILLARD        SUNNY     35  31  83 SE9       29.84F WCI  28
LINCOLN        MOSUNNY   36  30  79 S5        29.83F WCI  32
NEBRASKA CITY  SUNNY     35  28  77 SE9       29.86F WCI  28
BEATRICE       MOSUNNY   34  30  86 CALM      29.83S
FALLS CITY     SUNNY     38  30  73 SE8       29.86F WCI  32

...NORTHERN KANSAS...

CITY           SKY/WX    TMP DP  RH WIND       PRES   REMARKS
GOODLAND       CLOUDY    40  31  70 W14       29.97R WCI  32
HILL CITY      PTSUNNY   43  31  62 W6        29.87R
NORTON         SUNNY     45  30  57 W14       29.84S
PHILLIPSBURG   SUNNY     37  32  81 W5        29.84F WCI  34
SMITH CENTER   SUNNY     28  27  93 W3        29.83R
BELOIT         SUNNY     39  34  81 S5        29.81F
HAYS           PTSUNNY   45  28  53 NW12      29.85S
RUSSELL        MOSUNNY   44  35  70 W13       29.83R
CONCORDIA      MOSUNNY   45  35  68 SW3       29.82R
SALINA         MOSUNNY   49  37  63 SW8       29.84F
TOPEKA         SUNNY     47  36  65 S7        29.89F



USA.gov is the U.S. government's official web portal to all federal, state and local government web resources and services.